Regional Weather Roundup
Issued by NWS

Home | Current Version | Previous Version | Text Only | Print | Product List | Glossary Off
Versions: 1 2 3 4 5 6 7 8 9 10 11 12 13 14 15 16 17 18 19 20 21 22 23 24 25 26 27 28 29 30 31 32 33 34 35 36 37 38 39 40 41 42 43 44 45 46 47 48 49 50

235
ASUS44 KJAN 171110
RWRMS

MISSISSIPPI HOURLY WEATHER ROUNDUP
NATIONAL WEATHER SERVICE JACKSON MS
600 AM CDT WED SEP 17 2014

NOTE: "FAIR: INDICATES FEW OR NO CLOUDS BELOW 12,000 FEET WITH NO
SIGNIFICANT WEATHER AND/OR OBSTRUCTIONS TO VISIBILITY.

MSZ001>002-007>008-010>013-018>021-025>028-034>036-171200-
NORTHWEST MISSISSIPPI

CITY           SKY/WX    TMP DP  RH WIND       PRES   REMARKS
CLARKSDALE       N/A     64  64 100 CALM      30.02S
CLEVELAND      FAIR      66  66 100 NE3       29.99S
GREENWOOD      CLOUDY    69  66  90 NE6       29.99S
GREENVILLE     CLEAR     68  66  93 NE6       29.98S
GRENADA        FAIR      64  61  88 CALM      30.01R
OLIVE BRANCH   CLEAR     59  59 100 CALM      30.03S
OXFORD         FAIR      61  59  94 NE3       30.04S
TUNICA         CLOUDY    63  61  94 CALM      30.03S
$$

MSZ003>006-009-014>017-022>024-029>033-037>039-171200-
NORTHEAST MISSISSIPPI

CITY           SKY/WX    TMP DP  RH WIND       PRES   REMARKS
COLUMBUS AFB   CLOUDY    66  65  99 N8        29.99S
CORINTH          N/A     57  57 100 CALM      30.03R FOG
GOLDN TRIANGLE CLOUDY    68  63  83 CALM      29.99S
STARKVILLE     FAIR      64  63  94 CALM      29.99S FOG
TUPELO         CLEAR     63  60  90 NE7       30.01S
$$

MSZ040-058-171200-
CENTRAL MISSISSIPPI

CITY           SKY/WX    TMP DP  RH WIND       PRES   REMARKS
JACKSON INTL   CLEAR     69  67  93 CALM      29.97R
JACKSON HAWKNS CLEAR     71  68  90 CALM      29.98R
MERIDIAN KEY   CLEAR     68  67  96 N5        29.97R
MERIDIAN NAS   CLEAR     69  67  93 CALM      29.98R
RAYMOND        FAIR      68  63  83 CALM      29.98R HAZE
VICKSBURG      MOCLDY    66  65  96 CALM      29.97R
$$

MSZ059>079-171200-
SOUTH MISSISSIPPI

CITY           SKY/WX    TMP DP  RH WIND       PRES   REMARKS
BROOKHAVEN     FOG       72  72 100 CALM      29.99S VSB<1/4
HATTIESBURG    MOCLDY    70  69  97 CALM      29.98R
MCCOMB         MOCLDY    71  69  93 CALM      29.98R FOG
NATCHEZ        CLOUDY    70  68  94 S3        29.98S
PINE BELT      MOCLDY    68  64  88 CALM      29.98R
$$

MSZ080>082-171200-
COASTAL MISSISSIPPI

CITY           SKY/WX    TMP DP  RH WIND       PRES   REMARKS
BILOXI         CLOUDY    73  71  92 VRB3      29.95S
PASCAGOULA     CLOUDY    71  70  96 CALM      29.96R FOG
GULFPORT       CLOUDY    72  71  97 CALM      29.95S
$$



USA.gov is the U.S. government's official web portal to all federal, state and local government web resources and services.